ONEWEB-0087, 45451

Orbit data source: Space-Track

ONEWEB-0087, 45451 is a payload satellite owned by One Web (UK) in LEO that was launched on Sat, 21 Mar 2020 UTC via a SOYUZ-2-1B launch vehicle from the Tyuratam Missile And Space Complex (TTMTR). Payloads include a variety of satellites, spacecraft, and rockets equipped with specific instruments for various scientific and technological missions. These include communications satellites like Starlink; space stations such as the ISS; scientific satellites like the Hubble; Earth observation satellites from companies like Planet Labs, Umbra, and HawkEye 360; GPS; miniature CubeSats for education and research; and military/defense satellites.

Loading next visibility...
ONEWEB-0087 details
Identifier
45451, 2020-020AD
Orbit
LEO
Last TLE update17 hours ago
Origin
Flag of UKOne Web (UK)
ManufacturerOne Web
MissionOperational Commercial Communications
Bus & MotorARROW, Unknown motor
Mass148 kg wet, ~140 kg dry
Launch date (UTC)
2020-03-21 (5 years ago)
Launch vehicle
SOYUZ-2-1B
Launch site
Tyuratam Missile And Space Complex (TTMTR)
Object type
Payload
Rocket body
Debris
Shape & HBRTrap Box + 2 Pan, 5 m
Radar Cross Section2.957 m², Large (>1 m²)

Expand to show TLE details & history

TLE from 17 hours ago
0 ONEWEB-0087
1 45451U 20020AD  24355.79825191 -.00000435  00000-0 -12622-2 0  9993
2 45451  87.8894 129.3024 0001471  90.0198 270.1098 13.11418325231367
Epoch: 2024-12-20T19:09Z
Definitive object data (Epoch: 2024-12-20T19:09:28.965Z)
Latitude-0.00005°
Longitude112.07312°
Altitude1,220.565 km
Speed7.244 km/s
True Right ascension08h 37m 12s
True Declination0° 00' 00"
Sunlit
Object was in full shadow at TLE epoch
Visualization TLE readout
Latitude37.29914°
Longitude-69.67001°
Altitude1,222.166 km
Speed7.247 km/s
Apparent Right ascension21h 47m 19s
Apparent Declination2° 53' 12"
Sunlit
Object is in daylight
Visualization observer readout
Local Sidereal Time11:23:35
Azimuth33.142° NE
Elevation-41.844°
Doppler factor1
Orbital elements
Apogee altitude1,215.913 km
Perigee altitude1,213.679 km
Semi-major axis7,592.933 km
Eccentricity0.0001471
Inclination87.8894°
RAAN129.3024°
Arg. of periapsis90.0198°
True anomaly270.09294°
Mean anomaly270.1098°
Eccentric anomaly270.10137°
Mean motion3.28042 °/min
BSTAR-0.0012622
Orbital period109.74 mins
Loading maneuver chart data...
Loading historical data...
Loading historical data...
Loading historical data...
Loading historical data...
Loading historical data...
Loading historical data...
Loading historical data...

ONEWEB-0087 Visibility forecast

Observer location: undefined°, undefined

Span
Click to sort rows by Start time (UTC) header in descending order
Start Az.
Max El. time (UTC)
Max El. Az.
Max El.
End time (UTC)
End Az.
7 mins2024-12-21 19:35:48.438Z40.205° NE2024-12-21 19:39:48.438Z75.28° E15.616°2024-12-21 19:42:48.438Z101.708° ESE
12 mins2024-12-21 21:24:48.438Z357.765° N2024-12-21 21:30:48.438Z208.729° SW44.454°2024-12-21 21:36:48.438Z184.324° SSW
5 mins2024-12-21 23:16:48.438Z308.67° NW2024-12-21 23:18:48.438Z291.523° WNW13.436°2024-12-21 23:21:48.438Z266.054° W
7 mins2024-12-22 07:56:48.438Z101.803° ESE2024-12-22 07:59:48.438Z73.656° E17.61°2024-12-22 08:03:48.438Z37.81° NE
13 mins2024-12-22 09:42:48.438Z186.283° SSW2024-12-22 09:48:48.438Z266.984° W44.229°2024-12-22 09:55:48.438Z357.369° N
|